Regional Weather Roundup
Issued by NWS

Home | Current Version | Previous Version | Text Only | Print | Product List | Glossary On
Versions: 1 2 3 4 5 6 7 8 9 10 11 12 13 14 15 16 17 18 19 20 21 22 23 24 25 26 27 28 29 30 31 32 33 34 35 36 37 38 39 40 41 42 43 44 45 46 47 48 49 50
000
ASUS42 KTBW 041110
RWRFL
FLORIDA REGIONAL WEATHER ROUNDUP
NATIONAL WEATHER SERVICE TAMPA BAY RUSKIN FL
600 AM EST WED MAR 04 2015

NOTE: "FAIR" INDICATES FEW OR NO CLOUDS BELOW 12,000 FEET WITH NO
SIGNIFICANT WEATHER AND/OR OBSTRUCTIONS TO VISIBILITY.


FLZ001>010-012>015-112-114-115-041200-
PANHANDLE FLORIDA

CITY           SKY/WX    TMP DP  RH WIND       PRES   REMARKS
PENSACOLA      FOG       64  64 100 SE8       30.03S VSB 1/2
PENSACOLA NAS  FOG       66  65  96 SE9       30.02S VSB 1/4
MILTON NAS     CLOUDY    65  65 100 S8        30.04S FOG
CRESTVIEW      CLOUDY    65  65 100 S5        30.06S FOG
DUKE FIELD     FOG       65  64  98 S8        30.04R VSB 1/2
VALPARAISO     FOG       63  62  96 SE5       30.04S VSB 1/4
TRI COUNTY     FOG       62  62 100 S6        30.08R VSB 1/2
PANAMA CITY    FOG       64  64 100 SE3       30.06S VSB 1/2
TYNDALL AFB    FOG       64  64 100 E2        30.08R VSB 1/2
APALACHICOLA   FOG       66  63  90 S6        30.08R VSB 1/2

STATION/POSITION SKY/WX   TEMP    WIND        PRES    WAVE   SWELL
                          AIR SEA DIR/SP/G            HT/PER HT/PER
                          (F)     (DEG/KT/KT) (MB)    (FT/S) (FT/S)
30.1N   87.6W              66 65  120/ 12/ 14 1015.7F   2/ 6   2/ 6
29.2N   88.2W              71 71  140/ 14/ 16 1016.3    4/ 6   2/ 7
28.7N   86.0W              68 67  130/  8/ 10 1017.6R   2/ 5   2/ 5
PANAMA CITY BEAC           62 61  120/  9/ 10 1017.9R
CAPE SAN BLAS    NOT AVBL
TOWER C                    65     150/ 11/ 11 1018.7R
28.5N   84.5W              68 68  140/  8/ 10 1018.9R   1/ 3

$$
FLZ011-016>038-118-127-128-134-139-239-041200-
NORTH FLORIDA

CITY           SKY/WX    TMP DP  RH WIND       PRES   REMARKS
MARIANNA       CLOUDY    61  61 100 S5        30.07S FOG
TALLAHASSEE    FOG       62  61  96 CALM      30.10R VSB 1/2
PERRY          CLOUDY    64  64 100 SE3       30.11R
CROSS CITY       N/A     58  57  97 CALM      30.11R
LAKE CITY      FAIR      61  61 100 CALM      30.12R
GAINESVILLE    FOG       61  61 100 SE3       30.13R VSB 1/4
MAYPORT NAS    PTCLDY    64  63  96 S5        30.13R FOG
JACKSONVILLE   PTCLDY    65  65 100 S7        30.12R
JAX NAS        PTCLDY    67  64  90 S5        30.14R
JAX CRAIG      CLEAR     65  63  93 S6        30.13R
JAX CECIL      NOT AVBL
FERNANDINA BEA PTSUNNY   63  59  88 CALM      30.12R
ST AUGUSTINE   FOG       63  62  97 CALM      30.14R VSB 3/4

STATION/POSITION SKY/WX   TEMP    WIND        PRES    WAVE   SWELL
                          AIR SEA DIR/SP/G            HT/PER HT/PER
                          (F)     (DEG/KT/KT) (MB)    (FT/S) (FT/S)
SHELL POINT                61     100/  2/  4   N/A
KEATON BEACH               65     120/  2/  3 1019.7R
CEDAR KEY                  65     150/  3/  4 1019.6R
FERNANDINA                 62 56  140/  4/  5 1019.3R
30.7N   81.3W                 54                N/A     3/ 9
MAYPORT                    64 56  200/  2/  3 1020.2R
31.4N   80.9W              56 55  200/ 10/ 12 1019.6R   3/ 8   3/ 8
ST AUGUSTINE               61     210/  1/  1 1021.1R

$$
FLZ040-043>046-052-053-057-058-063-144-041200-
INTERIOR CENTRAL FLORIDA

CITY           SKY/WX    TMP DP  RH WIND       PRES   REMARKS
OCALA          CLEAR     64  63  94 S3        30.13R
THE VILLAGES   FOG       64  64 100 CALM      30.04R VSB 0
LEESBURG       FOG       62  62 100 CALM      30.14R VSB 1/4
SANFORD        FOG       64  63  96 CALM      30.13R VSB 1/2
ORLANDO EXEC   FOG       64  63  96 SE5       30.12S VSB 1/4
ORLANDO INTL   CLEAR     65  65 100 SE5       30.13R
WINTER HAVEN   CLEAR     65  64  97 E5        30.13R
LAKELAND       CLEAR     63  63 100 SE5       30.12R FOG
BARTOW         FOG       63 N/A N/A E3        30.13R VSB 1/2
OKEECHOBEE     FOG       59  59 100 E3        30.13R VSB 1

$$
FLZ041-047-054-059-064-141-147-041200-
EAST CENTRAL FLORIDA

CITY           SKY/WX    TMP DP  RH WIND       PRES   REMARKS
DAYTONA BEACH  CLEAR     66  65  96 CALM      30.14R
DELAND           N/A    N/A N/A N/A SE3       30.14R
JFK SPACE CTR  PTCLDY    65  64  96 S3        30.12R
CAPE CANAVERAL CLEAR     66  65  96 S3        30.12R
PATRICK AFB    CLEAR     67  67 100 S6        30.12S
MELBOURNE      MOCLDY    68  66  93 S6        30.12S
VERO BEACH     PTCLDY    65  63  93 CALM      30.13R
FT PIERCE      CLEAR     63  62  97 CALM      30.13R
STUART         MOCLDY    68  63  83 CALM      30.14R

STATION/POSITION SKY/WX   TEMP    WIND        PRES    WAVE   SWELL
                          AIR SEA DIR/SP/G            HT/PER HT/PER
                          (F)     (DEG/KT/KT) (MB)    (FT/S) (FT/S)
28.5N   80.2W              73 72  150/ 12/ 14 1020.0R
28.9N   78.5W              73 74  170/ 12/ 14 1021.3R   5/ 9   3/ 9
TRIDENT PIER               67 67   CALM  /  1 1020.6R
28.4N   80.5W                 65                N/A     3/ 9
27.6N   80.2W                 73                N/A     3/ 5

$$
FLZ050-056-061-142-242-148-248-149-249-151-251-155-255-
160-260-041200-
WEST CENTRAL FLORIDA

CITY           SKY/WX    TMP DP  RH WIND       PRES   REMARKS
CRYSTAL RIVER  FAIR      63  61  94 CALM      30.13R
INVERNESS      FOG       59  59 100 CALM      30.14R VSB 1/4
BROOKSVILLE    FOG       59  58  96 CALM      30.13R VSB 3/4
ZEPHYRHILLS    FOG       57  57 100 CALM      30.14R VSB 1/2
CLEARWATER     CLEAR     65  64  97 SE5       30.12R
TAMPA INTL     CLEAR     68  64  87 VRB5      30.12R
TAMPA EXEC     FOG       63  59  88 CALM      30.13R VSB 3/4
PLANT CITY     CLEAR    N/A N/A N/A SE3       30.14R
MACDILL AFB    CLEAR     66  66 100 SE5       30.12R
PETER O KNIGHT CLEAR     68  66  94 CALM      30.12R
ST PETERSBURG  CLEAR     66  64  93 S5        30.10R
SARASOTA       CLEAR     63  63 100 SE7       30.09R
VENICE         FAIR      64  64 100 E6        30.12R

STATION/POSITION SKY/WX   TEMP    WIND        PRES    WAVE   SWELL
                          AIR SEA DIR/SP/G            HT/PER HT/PER
                          (F)     (DEG/KT/KT) (MB)    (FT/S) (FT/S)
CEDAR KEY                  65     150/  3/  4 1019.6R
28.5N   84.5W              68 68  140/  8/ 10 1018.9R   1/ 3
27.3N   84.3W                 71                N/A     2/ 6
CLEARWATER BEACH           67 66  130/  4/  6 1019.6R
MIDDLE TAMPA BAY           65     150/  6/  8 1019.6R
VENICE                     65 66   90/  7/  8 1018.6R

$$
FLZ066-069-070-075>078-162-262-165-265-041200-
SOUTHWEST FLORIDA AND KEYS

CITY           SKY/WX    TMP DP  RH WIND       PRES   REMARKS
PUNTA GORDA    FOG       60  60 100 CALM      30.13R VSB 1/2
FT MYERS       CLEAR     65  65 100 CALM      30.10R
SOUTHWEST INTL CLEAR     65  63  93 CALM      30.11R
NAPLES         CLEAR     68  67  96 E6        30.10R
MARCO ISLAND   SUNNY     66  63  88 E6        30.10R
IMMOKALEE      SUNNY    N/A N/A N/A CALM      30.12R
MARATHON       CLEAR     75  70  84 SE10G21   30.08R
KEY WEST NAS   PTCLDY    74  69  85 E14       30.08R
KEY WEST INTL  PTCLDY    75  71  87 SE14      30.08R

STATION/POSITION SKY/WX   TEMP    WIND        PRES    WAVE   SWELL
                          AIR SEA DIR/SP/G            HT/PER HT/PER
                          (F)     (DEG/KT/KT) (MB)    (FT/S) (FT/S)
VENICE                     65 66   90/  7/  8 1018.6R
NAPLES                     68 68  110/  4/  6 1018.9R
26.0N   85.6W              76 77  140/ 16/ 17 1017.0R   5/ 6   2/15
DRY TORTUGAS               74     140/ 11/ 12 1017.8R
NW FL BAY                  76     130/ 17/ 20 1018.4F
SAND KEY                   75     120/ 13/ 15 1018.2R
SOMBRERO KEY               76     110/ 21/ 22 1018.7R
LONG KEY                   76 76  120/ 14/ 16 1019.2R
MOLASSES REEF              75 75  110/ 16/ 17 1018.6S

$$
FLZ067-068-071>074-168-172>174-041200-
SOUTHEAST FLORIDA

CITY           SKY/WX    TMP DP  RH WIND       PRES   REMARKS
W PALM BEACH   PTCLDY    74  67  78 SE12      30.11R
FT LAUDER-EXEC PTCLDY    74  67  78 SE8       30.11R
FT LAUDERDALE  PTCLDY    73  68  84 SE13      30.11R
POMPANO BEACH  MOCLDY    75  66  73 SE13      30.12R
PEMBROKE PINES MOCLDY    73  67  81 SE9       30.12R
OPA LOCKA      PTCLDY    73  67  81 SE8       30.12R
MIAMI          PTCLDY    74  67  78 E8        30.11R
WEST KENDALL   PTCLDY    72  66  81 SE8       30.11R
HOMESTEAD      PTCLDY    73  67  79 E6        30.10R

STATION/POSITION SKY/WX   TEMP    WIND        PRES    WAVE   SWELL
                          AIR SEA DIR/SP/G            HT/PER HT/PER
                          (F)     (DEG/KT/KT) (MB)    (FT/S) (FT/S)
PORT EVERGLADES            75     130/ 11/ 15 1019.5
VIRGINIA KEY               75 76  120/ 10/ 14 1019.2R
LAKE WORTH                 75 75  130/ 14/ 16 1019.5R
SETTLEMENT POINT           73     130/  9/ 11 1021.0R

$$



USA.gov is the U.S. government's official web portal to all federal, state and local government web resources and services.